Temp
12 12 11 11 11 11 11 11 11 10 10 10 10 10 10 10 10 10 9 10 10 10 10 10 11 11 11 11 11 11 11 11 11 11 10 10 10 10 10 10 10 10 10
12 11 11 11 11 11 11 11 10 10 10 10 10 10 10 10 10 10 10 10 10 10 10 10 10 11 10 10 10 10 10 10 10 10 10 10 10 10 10 10 10 10 10
11 11 11 11 11 11 11 11 11 10 10 10 10 10 10 10 10 10 10 10 10 9 10 10 10 10 10 10 10 10 10 10 10 10 10 10 10 10 10 10 10 10 9
11 11 11 11 11 10 10 10 10 10 10 10 10 10 9 9 10 10 10 10 9 9 9 10 10 10 10 10 10 10 10 10 10 10 10 10 10 9 9 9 9 9 9
11 10 10 10 10 10 10 10 10 10 10 10 10 10 9 9 9 10 10 9 9 9 9 9 9 9 9 9 10 10 9 9 9 9 9 9 9 9 9 9 9 9 8
10 10 10 10 10 10 10 10 10 10 10 10 10 10 10 9 9 9 9 9 9 9 9 9 9 9 9 9 9 9 8 9 8 9 9 8 8 8 8 8 8 8 8
10 10 10 10 10 10 10 10 10 10 10 10 10 9 9 9 9 8 8 8 8 8 8 8 8 8 8 8 8 8 8 7 8 8 8 8 8 7 7 7 7 7 7
10 10 10 10 10 9 9 10 10 10 9 9 9 9 9 9 9 8 8 7 7 7 7 7 7 7 7 7 7 7 7 7 7 7 7 7 7 7 7 7 7 7 7
10 10 10 10 9 9 9 9 9 9 9 9 9 9 8 8 8 8 8 7 7 7 7 7 6 6 6 6 6 6 6 7 7 7 7 7 7 7 6 6 6 6 5
10 10 10 10 9 9 9 9 9 9 9 9 8 8 8 8 8 8 7 7 7 6 6 6 6 6 6 6 6 6 6 6 7 7 7 7 7 6 6 6 6 6 5
9 9 9 9 9 9 9 9 9 9 9 8 8 8 8 7 7 7 7 7 6 6 6 6 6 6 6 6 6 6 6 6 6 6 6 6 6 6 6 6 6 6 5
8 9 9 9 9 9 9 9 9 9 8 8 8 8 8 7 7 6 6 6 6 6 6 6 6 6 6 6 6 6 6 6 6 6 6 6 6 5 5 5 5 6 5
8 8 8 9 9 9 8 8 9 8 8 8 8 7 7 7 7 6 6 6 6 6 6 6 6 6 5 6 6 5 5 5 5 5 6 6 6 5 5 6 6 5 5
7 8 8 8 8 8 8 8 8 8 8 8 8 7 7 7 6 6 6 6 6 6 6 6 6 6 5 5 5 5 6 6 6 6 6 6 6 6 6 6 6 6 6
7 7 7 7 8 8 8 8 8 8 8 8 7 7 7 7 6 6 6 6 6 6 6 6 6 5 5 5 5 6 6 6 6 6 6 6 6 6 6 6 6 6 5
6 7 7 7 7 7 7 7 7 7 7 7 7 7 7 6 6 6 6 6 5 5 5 5 5 5 5 5 5 6 6 6 6 6 6 6 6 6 6 6 6 5 5
6 6 7 7 7 6 7 7 7 7 7 7 7 7 6 6 6 6 6 5 5 5 5 5 5 5 5 5 6 6 6 6 6 6 6 6 6 6 6 6 5 5 5
6 7 7 7 7 6 6 6 7 6 7 7 6 6 6 6 6 6 5 5 5 5 5 4 4 4 5 5 5 6 6 6 6 6 6 5 5 5 5 5 5 5 4
6 6 6 7 6 6 6 6 6 6 6 6 6 6 6 6 5 5 5 5 5 5 4 4 4 4 5 5 5 5 5 5 5 5 5 5 5 4 4 4 4 4 4
5 6 6 6 6 6 6 6 6 5 6 6 6 6 6 6 5 5 5 4 4 4 4 4 4 4 5 5 5 5 5 5 5 5 4 4 4 4 3 3 3 3 3
5 5 6 6 6 6 6 6 6 5 5 5 5 6 5 6 5 5 4 4 4 3 3 3 4 4 4 4 4 4 4 4 4 4 4 3 3 2 2 2 2 2 2
5 5 6 6 6 6 6 6 5 5 5 5 5 5 5 5 5 4 4 3 3 3 3 3 3 3 4 4 5 5 5 4 4 4 3 3 2 2 1 1 1 0 0
5 5 6 6 6 6 5 6 5 5 5 5 5 5 5 4 4 4 3 3 3 3 3 2 3 3 3 4 4 4 4 5 4 4 3 2 2 1 1 1 1 0 0
5 6 6 6 6 6 5 6 5 5 4 4 4 4 4 4 3 3 3 2 2 2 2 2 2 3 3 3 3 3 3 3 4 5 5 4 3 2 1 1 1 0 0
5 5 6 5 5 5 6 6 5 4 4 5 4 4 4 3 3 3 2 2 2 2 2 2 2 2 3 3 3 3 2 2 2 2 3 3 2 2 1 1 1 1 1
5 5 6 5 5 5 6 5 4 4 5 5 4 4 3 3 3 2 2 2 2 1 1 1 1 2 2 2 2 2 2 2 2 1 2 2 2 2 1 1 0 -0 -1
Height
3167 3167 3167 3166 3165 3164 3163 3161 3160 3159 3158 3157 3155 3154 3153 3152 3151 3151 3150 3150 3151 3153 3154 3154 3155 3155 3156 3157 3157 3158 3158 3159 3159 3160 3160 3159 3159 3159 3158 3157 3157 3156 3155
3166 3166 3166 3166 3165 3164 3163 3162 3161 3159 3158 3157 3155 3154 3152 3151 3151 3150 3150 3150 3151 3152 3153 3154 3154 3155 3155 3156 3156 3157 3158 3158 3158 3159 3158 3158 3157 3156 3156 3155 3154 3154 3153
3165 3166 3166 3165 3165 3165 3163 3162 3161 3160 3158 3156 3155 3154 3153 3151 3150 3150 3150 3150 3150 3151 3153 3153 3154 3154 3155 3155 3155 3156 3157 3157 3157 3157 3156 3155 3155 3154 3153 3153 3152 3151 3151
3164 3165 3165 3165 3165 3165 3164 3163 3162 3160 3158 3157 3154 3152 3151 3151 3150 3150 3150 3150 3150 3151 3152 3152 3153 3153 3153 3153 3153 3154 3154 3153 3153 3152 3152 3152 3151 3151 3150 3150 3150 3149 3149
3164 3164 3164 3165 3165 3164 3164 3163 3162 3160 3158 3156 3154 3152 3151 3150 3149 3150 3150 3149 3149 3149 3150 3150 3150 3151 3151 3151 3151 3151 3150 3150 3150 3149 3149 3149 3148 3148 3147 3147 3147 3147 3147
3164 3163 3163 3164 3165 3165 3164 3163 3162 3160 3159 3157 3155 3153 3151 3150 3149 3149 3149 3149 3149 3149 3149 3149 3149 3149 3149 3149 3149 3149 3148 3148 3147 3146 3146 3145 3145 3145 3144 3144 3143 3143 3143
3161 3161 3162 3163 3164 3164 3163 3163 3162 3160 3159 3157 3155 3153 3152 3150 3149 3149 3148 3148 3148 3148 3148 3148 3148 3148 3147 3147 3146 3146 3145 3145 3143 3143 3142 3142 3141 3141 3141 3140 3139 3139 3139
3158 3159 3161 3161 3162 3163 3162 3162 3161 3160 3159 3157 3155 3153 3152 3151 3149 3148 3148 3148 3148 3147 3147 3148 3147 3146 3146 3145 3144 3144 3143 3142 3142 3140 3139 3139 3138 3138 3137 3136 3135 3135 3135
3156 3157 3158 3159 3160 3161 3161 3160 3160 3159 3158 3156 3154 3152 3151 3150 3149 3149 3148 3149 3148 3147 3147 3146 3146 3145 3144 3143 3142 3142 3140 3140 3139 3138 3137 3136 3135 3135 3134 3133 3132 3131 3131
3154 3154 3155 3156 3157 3158 3159 3159 3158 3157 3156 3155 3154 3152 3151 3150 3149 3149 3149 3148 3147 3147 3146 3145 3144 3143 3142 3141 3140 3139 3138 3137 3136 3135 3134 3133 3132 3131 3130 3129 3128 3127 3126
3150 3152 3152 3153 3154 3155 3156 3156 3156 3155 3154 3154 3153 3152 3150 3149 3148 3148 3147 3147 3146 3146 3144 3144 3142 3141 3140 3139 3138 3136 3135 3134 3132 3131 3130 3129 3127 3126 3125 3124 3123 3122 3122
3146 3147 3149 3150 3151 3152 3153 3153 3153 3153 3153 3152 3151 3150 3150 3148 3147 3146 3146 3145 3144 3144 3143 3142 3141 3140 3138 3136 3136 3134 3132 3130 3129 3128 3126 3124 3123 3121 3120 3118 3117 3116 3117
3143 3144 3145 3146 3147 3148 3149 3150 3150 3150 3150 3150 3149 3148 3148 3147 3145 3145 3144 3143 3142 3141 3140 3139 3138 3136 3135 3133 3132 3130 3128 3126 3125 3123 3122 3120 3118 3116 3114 3113 3112 3112 3111
3139 3141 3141 3142 3143 3144 3145 3146 3146 3147 3146 3147 3146 3146 3145 3144 3143 3143 3142 3141 3140 3139 3138 3136 3134 3133 3131 3129 3127 3126 3124 3122 3120 3119 3117 3115 3113 3111 3110 3108 3108 3106 3104
3134 3136 3138 3138 3139 3140 3141 3141 3142 3143 3143 3143 3143 3142 3142 3141 3140 3140 3139 3139 3137 3136 3135 3133 3131 3129 3127 3124 3123 3121 3119 3117 3115 3114 3112 3110 3109 3107 3105 3104 3102 3101 3099
3128 3130 3132 3134 3135 3135 3136 3137 3138 3138 3139 3139 3139 3140 3139 3138 3136 3136 3136 3135 3134 3133 3131 3130 3127 3125 3123 3120 3117 3115 3114 3113 3111 3110 3108 3106 3104 3102 3101 3099 3097 3096 3093
3122 3125 3127 3129 3130 3131 3131 3132 3133 3133 3135 3134 3135 3135 3134 3134 3133 3132 3132 3131 3130 3129 3127 3126 3124 3121 3118 3114 3113 3111 3109 3108 3106 3105 3103 3101 3099 3097 3095 3093 3091 3089 3087
3115 3118 3119 3121 3123 3125 3125 3126 3127 3128 3129 3129 3130 3130 3130 3129 3128 3128 3128 3127 3126 3124 3124 3122 3119 3116 3113 3110 3108 3107 3105 3103 3102 3100 3098 3095 3093 3091 3089 3087 3085 3083 3081
3108 3110 3111 3113 3115 3117 3118 3120 3121 3122 3123 3124 3124 3125 3125 3125 3124 3124 3124 3123 3122 3120 3119 3117 3114 3112 3108 3106 3104 3102 3100 3099 3097 3095 3093 3090 3087 3085 3082 3080 3078 3076 3074
3100 3102 3104 3106 3109 3110 3112 3114 3115 3116 3118 3118 3118 3119 3120 3120 3120 3120 3120 3119 3118 3116 3114 3111 3109 3107 3105 3103 3101 3098 3096 3093 3091 3090 3087 3084 3081 3079 3076 3073 3070 3067 3065
3093 3095 3098 3100 3102 3104 3105 3107 3108 3110 3111 3112 3113 3114 3114 3115 3116 3116 3116 3114 3113 3111 3108 3106 3104 3102 3100 3099 3097 3094 3091 3088 3086 3084 3081 3077 3074 3071 3068 3064 3061 3058 3055
3086 3088 3091 3094 3097 3098 3100 3100 3101 3103 3105 3106 3108 3108 3109 3110 3111 3112 3111 3111 3109 3107 3104 3102 3100 3098 3096 3094 3091 3088 3086 3085 3082 3078 3075 3070 3066 3063 3059 3055 3052 3048 3044
3078 3082 3084 3088 3090 3092 3093 3093 3094 3096 3099 3101 3102 3103 3105 3106 3107 3107 3107 3106 3104 3102 3099 3097 3095 3092 3090 3088 3085 3082 3077 3075 3071 3071 3068 3063 3059 3056 3052 3048 3044 3040 3036
3071 3075 3077 3081 3084 3086 3086 3087 3088 3091 3094 3096 3097 3099 3101 3102 3103 3103 3102 3102 3100 3098 3095 3092 3089 3087 3084 3081 3078 3074 3069 3065 3059 3056 3056 3054 3047 3044 3041 3038 3035 3030 3025
3063 3068 3071 3074 3077 3078 3079 3080 3082 3085 3088 3090 3092 3094 3096 3097 3098 3098 3098 3097 3095 3093 3090 3086 3083 3080 3076 3073 3070 3065 3062 3057 3052 3046 3042 3042 3039 3037 3032 3026 3022 3017 3012
3054 3060 3065 3068 3071 3072 3073 3075 3078 3080 3083 3086 3088 3090 3091 3093 3093 3094 3094 3092 3091 3088 3084 3081 3077 3073 3069 3065 3061 3056 3052 3047 3042 3036 3028 3024 3019 3018 3017 3014 3011 3004 2997
Wind_Speed
2 2 4 7 8 8 8 9 8 8 7 7 8 6 6 5 3 2 3 3 3 3 2 2 2 3 5 6 8 9 10 11 11 12 12 12 12 13 12 12 13 11 10
3 0 4 5 6 6 8 9 8 8 7 7 7 7 6 4 4 2 3 3 3 3 3 3 3 3 4 5 7 8 10 10 10 11 12 12 14 14 15 15 14 14 13
4 1 3 5 5 5 7 8 8 8 9 8 7 5 5 5 3 2 3 4 3 3 3 3 3 3 4 5 6 8 9 10 12 13 14 14 15 16 17 16 16 16 15
4 0 2 3 4 4 6 7 8 10 11 11 9 7 5 4 2 1 2 4 4 3 3 3 4 5 5 6 7 8 10 12 13 14 16 17 16 17 18 17 17 17 17
5 3 2 2 3 4 4 6 8 10 11 13 12 9 5 3 3 2 1 3 4 4 4 5 5 6 7 8 9 11 12 13 14 14 15 16 16 17 16 16 16 17 16
12 5 2 1 1 2 3 5 7 8 11 12 12 11 8 3 1 1 2 2 2 3 4 4 5 6 7 8 9 10 11 12 12 13 13 13 14 15 15 15 16 16 16
10 6 3 3 3 2 2 4 6 7 10 11 12 11 11 9 5 1 1 2 2 2 2 3 4 5 6 6 8 9 10 10 12 13 13 14 14 14 14 15 15 15 16
12 9 7 6 6 5 3 3 4 6 8 11 12 11 10 10 9 6 4 2 1 1 2 3 3 4 5 7 8 9 9 10 12 12 13 13 13 13 13 13 14 14 14
15 13 12 10 9 8 6 4 3 3 6 9 11 11 10 9 8 7 6 5 3 3 3 4 5 5 5 7 7 8 10 11 12 13 14 14 13 14 15 16 16 16 17
18 17 15 14 12 10 9 7 5 4 5 8 10 11 11 9 7 6 5 5 5 5 6 6 6 7 8 9 9 10 11 12 13 14 15 15 15 15 16 18 19 18 16
17 17 16 15 14 13 12 10 8 6 5 7 8 10 11 10 8 7 7 7 7 7 7 8 8 9 10 11 11 11 13 14 15 16 17 18 19 19 20 20 21 21 20
16 16 17 17 16 16 15 14 12 10 8 8 8 9 10 11 10 10 9 8 8 9 10 10 11 12 12 13 16 16 16 18 19 20 21 21 21 22 22 23 23 24 22
19 17 18 18 18 18 18 17 16 15 12 11 11 10 11 11 11 12 12 11 11 12 12 13 13 14 16 16 18 19 19 20 20 21 22 23 24 25 25 25 26 25 26
21 20 19 18 18 18 18 20 19 18 16 15 14 13 13 13 12 13 14 15 14 14 15 16 17 17 18 18 19 20 20 21 23 23 22 20 21 21 21 22 22 23 26
25 24 21 19 18 18 18 18 21 21 20 18 17 16 15 15 15 15 16 16 15 16 17 18 19 19 20 20 21 22 22 22 19 18 18 19 20 21 22 23 23 24 25
25 25 25 24 21 19 19 19 20 23 23 22 20 19 18 18 18 18 18 18 17 18 18 20 19 20 20 21 23 23 21 17 18 19 19 20 21 22 23 24 24 25 25
27 26 26 28 27 24 22 22 22 23 24 25 23 22 22 20 20 20 19 19 19 20 20 20 19 20 21 21 21 19 19 19 19 20 20 21 22 24 25 26 26 26 27
30 30 30 30 28 28 27 27 26 24 25 26 25 25 24 22 21 21 20 20 20 20 20 19 21 21 21 20 19 19 19 19 20 21 23 24 25 27 28 29 29 29 30
32 30 26 25 25 27 31 31 27 26 27 28 27 27 25 23 21 20 19 19 19 20 20 22 22 21 19 19 20 19 20 21 21 23 25 27 28 29 30 32 32 34 34
33 32 29 25 26 28 30 29 28 28 27 28 28 26 23 21 20 18 18 18 18 20 22 23 22 20 19 19 19 19 21 22 24 25 27 29 30 31 32 33 35 35 36
36 33 28 26 28 29 27 26 26 26 26 26 26 24 22 20 17 17 17 16 19 21 22 23 22 21 20 21 20 22 23 23 24 25 28 30 31 32 33 35 37 39 39
35 33 27 27 27 26 23 24 23 24 26 26 24 22 20 17 16 16 15 17 19 21 22 22 23 23 23 23 24 24 24 25 25 27 29 31 32 34 36 38 39 40 41
33 31 26 26 26 25 23 25 24 26 26 24 22 19 17 16 15 14 14 16 19 21 22 23 24 24 25 26 27 28 30 32 33 30 31 32 32 32 34 36 38 39 42
33 29 27 26 24 23 24 25 25 23 22 19 18 17 17 15 13 13 13 16 19 22 24 26 27 27 27 28 29 30 33 36 39 43 40 40 40 38 37 38 39 42 44
35 30 27 24 21 21 23 24 24 22 20 19 18 18 16 13 11 11 13 16 20 23 27 29 29 30 30 31 32 33 35 37 40 44 47 42 40 38 39 42 44 47 49
38 33 28 23 20 20 20 22 20 20 19 18 18 17 14 12 11 12 14 17 21 25 29 31 32 34 33 33 35 37 39 41 43 46 49 48 49 47 45 46 47 49 53
Wind_Direction
173 23 10 17 13 19 29 33 28 30 32 33 33 32 33 43 57 112 151 172 148 152 143 165 199 194 203 201 210 220 228 238 250 260 269 273 274 277 279 275 270 268 264
190 34 7 22 19 24 32 37 34 30 30 29 29 29 35 38 57 123 159 156 146 146 162 191 214 217 215 213 216 227 237 248 259 266 267 270 272 274 277 277 275 272 268
196 235 2 0 15 36 41 38 36 33 24 24 28 28 27 23 42 117 144 160 169 172 193 195 235 247 248 246 248 253 260 266 270 271 272 268 269 271 274 275 275 271 268
180 34 28 13 7 21 35 36 36 37 29 19 20 21 13 3 6 290 167 165 171 184 213 223 247 254 262 263 264 264 264 263 265 268 272 273 275 276 278 278 276 272 270
199 166 91 20 355 5 13 26 30 31 25 23 19 17 15 350 319 301 204 191 195 204 224 237 249 256 258 260 261 261 261 264 268 271 271 275 279 280 281 281 277 276 273
243 207 148 177 297 336 358 20 26 26 22 21 21 22 24 19 281 240 228 223 210 228 237 257 263 270 273 273 273 273 274 278 277 278 280 281 282 283 285 285 284 283 279
203 207 202 209 238 273 327 4 17 16 16 16 14 20 28 33 37 87 191 158 213 243 279 286 287 289 286 286 284 284 286 286 285 285 285 283 284 286 287 286 285 283 280
208 224 226 223 232 249 263 315 355 6 6 11 7 11 21 33 38 46 61 43 309 328 327 303 306 300 302 298 299 300 297 295 294 293 292 292 293 291 287 284 285 284 282
218 221 222 220 229 236 243 261 306 342 0 1 2 1 6 23 33 30 33 36 34 38 14 353 338 326 310 298 291 289 288 289 289 288 288 289 289 288 284 279 276 278 281
231 225 224 222 225 232 244 246 266 298 332 346 352 352 354 2 7 6 5 352 351 350 344 331 317 302 295 288 288 290 290 288 286 287 289 289 288 284 281 283 286 279 267
234 235 230 227 231 235 241 244 249 263 294 318 329 338 342 343 345 338 335 331 331 328 325 314 311 301 296 295 293 292 291 289 289 290 291 292 290 288 285 283 281 279 276
230 225 228 229 234 238 240 241 242 250 264 286 299 315 325 328 330 325 315 313 316 317 319 313 308 304 302 302 301 297 294 291 290 289 289 287 287 286 284 282 279 278 278
237 229 227 230 233 239 243 245 244 246 255 271 283 290 300 312 320 313 310 308 312 311 313 308 305 304 301 298 294 291 292 292 291 291 290 290 289 286 282 283 283 283 279
242 238 234 234 235 240 242 249 247 247 255 263 273 280 285 296 300 299 300 300 306 305 305 302 304 301 298 296 296 296 297 298 297 296 295 294 292 291 292 288 286 283 279
242 251 250 246 244 246 248 250 249 250 253 260 269 276 280 282 286 289 294 294 298 298 299 302 300 300 302 304 303 302 303 303 304 303 302 300 298 298 296 295 293 290 288
235 240 251 250 248 248 248 253 256 255 255 261 269 275 279 279 282 285 290 293 294 297 301 300 301 304 305 307 305 304 303 303 303 303 304 304 304 302 300 299 297 296 293
241 245 249 248 251 253 254 257 261 261 260 262 269 276 279 280 279 281 288 292 294 299 302 301 303 305 306 307 305 305 304 307 309 308 308 308 306 304 302 300 298 296 295
248 251 255 250 248 249 256 257 260 263 261 261 269 275 278 278 277 280 283 286 294 300 300 303 306 309 310 310 307 305 306 307 308 308 308 306 304 302 300 298 296 294 293
254 258 261 248 245 247 251 253 256 259 260 262 267 271 274 275 276 277 279 287 295 297 302 307 310 310 311 309 306 306 307 307 308 307 305 303 301 299 297 295 293 293 292
252 258 259 246 242 244 250 249 250 256 258 261 264 270 271 270 272 273 279 286 295 301 306 310 312 311 309 306 305 307 307 310 310 309 307 304 300 298 295 292 292 290 289
249 255 251 240 244 249 247 250 251 253 256 258 261 266 265 267 264 269 279 290 300 306 311 312 310 308 308 306 308 310 311 310 310 310 309 305 302 299 296 293 292 291 289
243 248 243 235 239 242 248 250 248 248 249 251 258 257 259 259 261 269 280 295 305 310 310 311 310 307 304 303 304 303 305 307 309 311 310 308 303 299 295 294 293 291 291
236 243 228 229 238 243 250 252 246 244 245 249 249 249 247 249 256 268 287 303 309 312 314 312 309 309 306 305 305 308 310 310 310 310 312 308 300 295 291 289 288 289 290
227 230 217 228 238 244 251 252 244 241 242 239 237 231 233 239 252 276 297 308 313 317 316 314 313 310 307 308 308 312 315 316 316 312 312 311 306 303 298 295 294 293 293
220 223 217 229 234 247 249 244 233 230 228 226 222 223 224 237 258 283 300 310 319 321 322 320 317 316 313 310 311 316 317 317 316 313 310 307 301 298 297 297 299 299 298
218 218 219 229 237 249 241 234 220 217 222 224 223 216 222 241 263 284 300 312 319 324 326 325 322 321 316 314 317 318 318 317 315 313 310 309 308 307 304 302 302 301 301